User: anonymous   Login
Location: Unspecified
(0.0000°N, 0.0000°E)
Time: 06:33:35
(UTC+00:00)
Language:

Tiros 1 - Orbit

View from above orbital plane
View from above orbital plane
View from above satellite
View from above satellite

Ground track
Ground track

The orbit data is extracted from the following two-line orbital elements,

1 00029U 60002B   15114.43050412  .00000925  00000-0  17067-3 0  9990
2 00029 048.3793 183.1177 0023649 108.1050 252.2440 14.73764122941138
Epoch (UTC): 24 April 2015 10:19:55
Eccentricity: 0.0023649
inclination: 48.3793°
perigee height: 632 km
apogee height: 666 km
right ascension of ascending node: 183.1177°
argument of perigee: 108.1050°
revolutions per day: 14.73764122
mean anomaly at epoch: 252.2440°
orbit number at epoch: 94113

The dashed part of the orbit path shows where the satellite is in the earth's shadow,  

DLR